Stations météo

réclame
Mon MeteoGroup
Malilla, Suède (2565): Température de l'air & dewpoint: 18.05.2019 05:00:00 - 24.05.2019 05:00:00 (CEST)Malilla, Suède (2565): Vitesse du vent & gusts: 18.05.2019 05:00:00 - 24.05.2019 05:00:00 (CEST)Malilla, Suède (2565): Direction du vent: 18.05.2019 05:00:00 - 24.05.2019 05:00:00 (CEST)Malilla, Suède (2565): reduced air pressure: 18.05.2019 05:00:00 - 24.05.2019 05:00:00 (CEST)Malilla, Suède (2565): visibility: 18.05.2019 05:00:00 - 24.05.2019 05:00:00 (CEST)Malilla, Suède (2565): Quantités de précipitations: 18.05.2019 05:00:00 - 24.05.2019 05:00:00 (CEST)
Date & Time tt [°C] td [°C] ff [km/h] ff [knt] fx [km/h] fx [knt] dd ppp [hPa] vv [km] rr [mm]
24.05.2019 05:00:00 5,3 4,7 0 0 4 2 N 1011,7 11 0,0
24.05.2019 04:00:00 6,0 5,1 0 0 4 2 N 1011,9 12 0,0
24.05.2019 03:00:00 6,9 5,8 0 0 3 2 N 1012,3 17 0,0
24.05.2019 02:00:00 8,3 6,6 0 0 6 3 N 1012,6 19 0,0
24.05.2019 01:00:00 10,1 7,0 4 2 11 6 WSW 1012,9 17 0,0
24.05.2019 00:00:00 10,2 8,0 2 1 4 2 SE 1013,1 18 0,0
23.05.2019 23:00:00 10,9 7,0 0 0 8 5 N 1013,4 17 0,0
23.05.2019 22:00:00 12,8 6,8 3 1 13 7 W 1013,2 16 0,0
23.05.2019 21:00:00 15,4 6,1 10 5 18 10 W 1012,8 24 0,0
23.05.2019 20:00:00 17,4 6,9 8 4 20 11 W 1012,4 20 0,0
23.05.2019 19:00:00 18,6 6,4 9 5 21 11 W 1012,2 22 0,0
23.05.2019 18:00:00 19,3 5,7 10 5 23 12 WNW 1012,2 20 0,0
23.05.2019 17:00:00 19,2 5,6 10 5 25 14 W 1012,4 20 0,0
23.05.2019 16:00:00 19,1 7,2 11 6 24 13 WNW 1012,5 18 0,0
23.05.2019 15:00:00 17,3 5,6 11 6 28 15 WNW 1013,2 19 0,0
23.05.2019 14:00:00 17,4 3,7 16 9 27 15 WNW 1013,4 17 0,0
23.05.2019 13:00:00 16,3 4,7 13 7 29 15 WNW 1013,4 21 0,0
23.05.2019 12:00:00 15,2 7,5 10 5 26 14 WSW 1013,5 21 0,0
23.05.2019 11:00:00 14,0 7,7 14 7 27 15 WNW 1013,4 15 0,0
23.05.2019 10:00:00 12,1 8,9 8 5 15 8 WNW 1013,3 15 0,0
23.05.2019 09:00:00 10,5 8,8 8 4 14 7 WNW 1013,4 18 0,0
23.05.2019 08:00:00 9,9 8,2 8 4 18 10 WNW 1013,4 16 3,4
23.05.2019 07:00:00 9,5 8,9 13 7 22 12 WNW 1012,8 3,4 -
23.05.2019 06:00:00 10,5 9,3 8 4 27 14 WNW 1012,0 15 2,0
23.05.2019 05:00:00 11,2 9,6 14 8 29 16 WNW 1011,6 8 2,0
23.05.2019 04:00:00 12,8 11,5 16 8 29 16 WNW 1011,4 - 0,0
23.05.2019 03:00:00 15,0 13,2 16 8 23 13 W 1010,8 12 0,0
23.05.2019 02:00:00 16,0 14,0 10 6 20 11 WNW 1010,4 17 0,0
23.05.2019 01:00:00 15,8 13,3 5 3 15 8 W 1010,3 18 0,0
23.05.2019 00:00:00 16,0 13,5 8 4 14 8 W 1010,3 19 0,0
22.05.2019 23:00:00 16,1 13,0 2 1 8 5 NE 1009,9 20 0,0
22.05.2019 22:00:00 15,9 13,2 5 3 8 5 W 1009,9 20 0,0
22.05.2019 21:00:00 19,1 13,3 5 3 17 9 W 1009,2 36 0,0
22.05.2019 20:00:00 22,0 13,4 7 4 16 9 S 1008,8 32 0,0
22.05.2019 19:00:00 23,6 13,2 9 5 19 10 SSE 1008,5 24 0,0
22.05.2019 18:00:00 24,4 13,0 14 8 24 13 SE 1008,1 20 0,0
22.05.2019 17:00:00 25,4 13,3 16 9 26 14 SE 1007,5 21 0,0
22.05.2019 16:00:00 26,1 14,2 10 5 26 14 E 1007,5 19 0,0
22.05.2019 15:00:00 25,8 14,0 12 7 24 13 E 1007,7 16 0,0
22.05.2019 14:00:00 25,6 13,5 10 6 23 13 E 1008,2 20 0,0
22.05.2019 13:00:00 24,8 14,0 11 6 28 15 ENE 1008,6 17 0,0
22.05.2019 12:00:00 24,6 13,5 8 4 16 9 ENE 1008,7 19 0,0
22.05.2019 11:00:00 22,7 14,5 7 4 16 8 NNE 1008,9 19 0,0
22.05.2019 10:00:00 21,1 15,0 8 4 19 10 NNE 1009,0 22 0,0
22.05.2019 09:00:00 20,3 14,2 5 3 9 5 E 1009,0 13 0,0
22.05.2019 08:00:00 18,1 14,0 0 0 6 3 N 1008,8 18 0,0
22.05.2019 07:00:00 15,3 13,1 4 2 5 3 WSW 1009,0 13 0,0
22.05.2019 06:00:00 12,6 12,0 3 2 6 3 W 1009,2 8 0,0
22.05.2019 05:00:00 12,1 11,3 0 0 6 3 N 1009,2 6 0,0
22.05.2019 04:00:00 13,2 12,1 2 1 8 4 NNW 1009,2 11 0,0
22.05.2019 03:00:00 13,2 12,3 3 2 9 5 NNE 1009,3 - 0,0
22.05.2019 02:00:00 13,5 12,9 4 2 10 6 NE 1009,2 12 0,0
22.05.2019 01:00:00 12,1 11,5 0 0 7 4 N 1009,5 9 0,0
22.05.2019 00:00:00 12,8 12,0 3 2 5 3 NNE 1009,5 7 0,0
21.05.2019 23:00:00 14,0 12,7 2 1 5 3 NE 1009,5 12 0,0
21.05.2019 22:00:00 15,7 13,4 0 0 7 4 N 1009,5 16 0,0
21.05.2019 21:00:00 18,6 13,5 5 3 14 8 E 1009,2 19 0,0
21.05.2019 20:00:00 20,2 12,9 10 6 22 12 E 1008,7 20 0,0
21.05.2019 19:00:00 21,2 13,4 12 7 27 14 E 1008,2 20 0,0
21.05.2019 18:00:00 21,9 13,3 13 7 31 17 E 1008,1 16 0,0
21.05.2019 17:00:00 22,1 13,4 16 9 29 16 E 1008,2 15 0,0
21.05.2019 16:00:00 22,6 14,2 16 9 34 19 E 1008,3 21 0,0
21.05.2019 15:00:00 22,4 13,7 14 7 34 19 E 1008,2 16 0,0
21.05.2019 14:00:00 22,4 14,3 20 11 37 20 E 1008,2 17 0,0
21.05.2019 13:00:00 20,8 14,7 16 9 29 15 E 1008,4 16 0,0
21.05.2019 12:00:00 19,8 15,2 10 5 19 10 ENE 1008,6 18 0,0
21.05.2019 11:00:00 17,8 14,3 8 4 13 7 ENE 1008,5 20 0,0
21.05.2019 10:00:00 15,5 13,5 5 3 14 7 NE 1008,5 12 0,0
21.05.2019 09:00:00 14,1 12,5 5 3 16 8 NE 1008,7 13 0,0
21.05.2019 08:00:00 13,0 11,7 8 4 16 9 NNE 1008,7 13 0,3
21.05.2019 07:00:00 12,7 10,9 8 5 18 10 NE 1008,6 15 0,0
21.05.2019 06:00:00 12,9 11,3 6 3 14 8 NE 1008,2 14 0,0
21.05.2019 05:00:00 12,4 11,0 4 2 13 7 NE 1008,0 12 0,0
21.05.2019 04:00:00 12,8 11,4 6 4 13 7 N 1007,8 12 0,0
21.05.2019 03:00:00 13,4 11,8 6 4 13 7 N 1007,7 15 0,0
21.05.2019 02:00:00 14,2 12,2 7 4 16 9 NNE 1007,6 11 0,0
21.05.2019 01:00:00 14,5 12,7 5 3 10 6 N 1008,1 16 0,0
21.05.2019 00:00:00 15,2 13,2 5 3 11 6 NNE 1008,7 18 0,0
20.05.2019 23:00:00 15,9 13,2 5 3 13 7 NNE 1008,4 16 0,0
20.05.2019 22:00:00 17,0 13,5 6 3 11 6 NNE 1008,6 17 0,0
20.05.2019 21:00:00 18,7 14,2 5 3 14 8 ENE 1008,4 17 0,0
20.05.2019 20:00:00 20,0 14,8 7 4 22 12 ENE 1008,7 21 0,0
20.05.2019 19:00:00 21,2 14,6 12 6 24 13 E 1008,5 16 0,0
20.05.2019 18:00:00 22,4 15,0 12 7 21 12 E 1007,9 11 0,0
20.05.2019 17:00:00 23,1 14,1 7 4 21 11 ESE 1007,8 17 0,0
20.05.2019 16:00:00 22,3 14,4 15 8 26 14 ESE 1008,5 15 0,0
20.05.2019 15:00:00 22,5 14,6 10 5 24 13 ESE 1008,5 14 0,0
20.05.2019 14:00:00 22,1 15,4 14 8 25 13 ESE 1008,6 15 0,0
20.05.2019 13:00:00 20,9 15,4 6 3 14 8 ESE 1008,6 17 0,0
20.05.2019 12:00:00 19,8 15,2 5 3 11 6 ESE 1008,8 17 0,0
20.05.2019 11:00:00 18,2 14,5 2 1 11 6 S 1009,1 18 0,0
20.05.2019 10:00:00 16,3 12,5 3 1 8 4 NE 1009,1 13 0,0
20.05.2019 09:00:00 15,3 12,1 3 2 10 6 SE 1009,1 15 0,0
20.05.2019 08:00:00 14,0 11,2 4 2 9 5 E 1008,9 18 0,0
20.05.2019 07:00:00 13,1 11,2 6 3 11 6 NNE 1008,9 15 0,0
20.05.2019 06:00:00 11,9 10,8 4 2 12 7 ESE 1009,2 10 0,0
20.05.2019 05:00:00 12,0 10,9 5 3 13 7 NNE 1008,9 12 0,0
20.05.2019 04:00:00 12,3 11,5 5 3 13 7 NNE 1009,1 8 0,0
20.05.2019 03:00:00 13,1 12,3 5 3 14 8 ENE 1009,9 8 0,0
20.05.2019 02:00:00 13,5 12,7 5 3 19 10 ENE 1010,0 8 0,0
20.05.2019 01:00:00 13,7 13,1 11 6 23 12 NNE 1010,4 8 0,0
20.05.2019 00:00:00 14,0 13,4 6 4 18 10 NNE 1011,0 6 0,1
19.05.2019 23:00:00 14,2 13,6 5 3 17 9 NE 1011,7 10 1,7
19.05.2019 22:00:00 14,5 13,9 5 3 13 7 NE 1012,1 4,7 1,6
19.05.2019 21:00:00 14,7 13,9 4 2 14 8 NE 1011,8 9 0,0
19.05.2019 20:00:00 14,9 13,9 6 3 16 8 ENE 1012,0 11 0,1
19.05.2019 19:00:00 14,9 13,8 7 4 16 9 NE 1012,0 10 0,9
19.05.2019 18:00:00 16,3 14,1 9 5 18 10 E 1012,2 26 0,0
19.05.2019 17:00:00 17,5 14,0 9 5 18 10 ENE 1012,3 14 0,0
19.05.2019 16:00:00 18,2 13,9 9 5 19 11 NE 1012,4 25 0,0
19.05.2019 15:00:00 18,1 13,6 10 5 17 9 ENE 1012,7 19 0,0
19.05.2019 14:00:00 17,4 13,7 10 5 17 9 E 1012,8 21 0,0
19.05.2019 13:00:00 16,8 14,3 7 4 14 8 N 1012,8 19 0,0
19.05.2019 12:00:00 16,3 14,0 6 3 15 8 NE 1012,8 17 0,0
19.05.2019 11:00:00 15,9 13,9 9 5 13 7 NNE 1012,7 18 0,0
19.05.2019 10:00:00 15,1 13,5 4 2 11 6 N 1012,7 16 0,0
19.05.2019 09:00:00 14,2 12,9 3 1 6 4 NNE 1012,6 15 0,0
19.05.2019 08:00:00 12,9 12,4 3 2 8 5 NNE 1012,7 3,4 0,0
19.05.2019 07:00:00 12,3 12,0 4 2 8 4 ENE 1012,6 8 0,0
19.05.2019 06:00:00 11,9 11,6 4 2 6 4 NNW 1012,6 1,9 0,0
19.05.2019 05:00:00 11,7 11,4 2 1 7 4 N 1012,7 4,3 0,0
19.05.2019 04:00:00 11,7 11,4 4 2 11 6 ENE 1013,0 3,9 0,0
19.05.2019 03:00:00 11,9 11,4 4 2 8 4 ENE 1012,8 1,2 0,0
19.05.2019 02:00:00 11,9 11,4 3 2 6 3 NNE 1013,0 6 0,0
19.05.2019 01:00:00 12,0 11,5 3 1 5 3 N 1013,1 7 0,2
19.05.2019 00:00:00 12,2 11,6 2 1 5 3 SSE 1013,3 3,1 0,2
18.05.2019 23:00:00 12,2 11,6 4 2 9 5 NNE 1013,3 8 0,1
18.05.2019 22:00:00 12,5 11,9 5 3 9 5 N 1013,1 3,7 1,6
18.05.2019 21:00:00 12,9 12,1 4 2 13 7 NE 1013,2 11 0,0
18.05.2019 20:00:00 13,4 12,5 6 4 14 8 NNE 1013,4 10 0,0
18.05.2019 19:00:00 13,7 12,6 7 4 14 8 NE 1013,6 9 0,1
18.05.2019 18:00:00 14,0 13,0 8 4 19 10 ENE 1014,1 6 0,0
18.05.2019 17:00:00 14,7 13,1 7 4 16 9 ENE 1014,4 9 0,0
18.05.2019 16:00:00 15,4 12,7 9 5 19 10 NE 1014,7 17 0,0
18.05.2019 15:00:00 16,6 13,3 10 5 18 10 ENE 1014,7 15 0,0
18.05.2019 14:00:00 17,1 13,6 9 5 16 9 E 1014,8 16 0,0
18.05.2019 13:00:00 16,2 13,1 8 5 15 8 E 1015,0 18 0,0
18.05.2019 12:00:00 15,7 13,0 5 3 14 8 NE 1014,9 17 0,0
18.05.2019 11:00:00 13,4 11,8 8 4 18 10 NNE 1015,2 10 0,0
18.05.2019 10:00:00 12,5 10,9 8 4 18 10 NE 1015,2 9 0,0
18.05.2019 09:00:00 11,2 9,9 9 5 17 9 NE 1015,6 11 0,0
18.05.2019 08:00:00 10,4 9,3 6 3 13 7 NE 1015,4 14 0,0
18.05.2019 07:00:00 9,8 8,9 6 3 13 7 NNE 1015,2 15 0,0
18.05.2019 06:00:00 9,4 8,3 6 4 15 8 NNE 1015,3 11 0,0
18.05.2019 05:00:00 9,3 8,1 4 2 14 8 NE 1015,7 16 0,0

tt = Température de l'air
td = dewpoint
ff = Vitesse du vent
fx = gusts
dd = Direction du vent
ppp = reduced air pressure
vv = visibility
rr = Quantités de précipitations

stations d'obs. à proximité